Re: [心得] Auris 0-100 平地无风实测

看板 Car
时间
留言 27则留言,14人参与讨论
推嘘 12推 0嘘 15→
超越车讯多次测试后的最佳成绩为: 0-100km/hr:10.28秒 0-400m:17.35秒@133.6km/hr 零百加速破十秒的性能车......这被8.5~9.2秒左右的马三和Focus屌打吧! 七秒出头的Elantra Sport更不用说了. http://www.twmotor.com.tw/buy/main_products.php?pid=1506&mt=1 (全新架构的2.0升引擎,可输出171hp最大马力,搭配上新款CVT变速箱,原厂强调本车在 低速域的动力表现。) 然而试车组实际体验后,发现Auris在低速域的动力输出偏温,直到中速域后才有饱足的 动力感涌现,并延续到高转速域,这点反倒与原厂所强调的特色有些落差;而试著切换到 Sport模式体验,能感受到变速箱模拟换档的反应更为迅速,但对低速域的动力输出并未 有任何帮助。话虽如此,采用新架构的变速箱(一档齿轮,后衔接CVT)在齿轮与钢带衔 接时,并没有明显间隔感,这点凸显出其设计的确有效。 (低速偏温的输出,对于加速表现有著不少影响,但中段涌现的饱满动力,也不会太过突 兀,这点可看出原厂调校的特性。) (Auris提供运动模式,可增加变速箱的反应,但在此模式下的加速成绩却不如一般模式, 让人摸不著头绪。) 当然,试车组也对Auris进行加速实测,0~100km/h花费10.28秒,0~400m则为17.35秒, 通过时速133.6km/h,这对于最大马力171hp的Auris来说,表现并非理想;较为特别的是 ,试车组切至Sport搭配手排模式,测出来都落在10.8秒上下,但采用D档与一般模式进行 测试,就缴出了10.28秒的成绩。 不过对手Mazda 3与Auris同为2.0升NA引擎,最大马力Mazda 3还少了6hp,不过在低转的 加速力道明显比Auris优异,且0~100km/h试车组实测大多为8.5秒上下(按:最新一期超越 车讯对马三的零百加速测试成绩为9.13秒),对比之下,Auris输了。 ※ 引述《waterdesign (水●设计)》之铭言: : https://youtu.be/k-e1AAA8XSA
: 看起来是两秒多起步 : 十秒多破百 : 所以大约花八秒 -- ※ 发信站: 批踢踢实业坊(ptt.cc), 来自: 114.32.247.63 ※ 文章网址: https://www.ptt.cc/bbs/car/M.1539315032.A.1C7.html
1Fwaterdesign (9留言): 国外的媒体测出来的数据跟这家差很多 10/12 11:32
3Fwaterdesign (9留言): 就看你觉得哪家比较有公信力了 10/12 11:33
5Fmmppeegg: 拉杆上上去可以再少1秒喔 10/12 11:33
6Fwaterdesign (9留言): 楼上的世界真令人难以理解 10/12 11:34
7Fwaterdesign (9留言): 照理说拉杆只会增加重量变慢而以 10/12 11:35
8FVVll: 国外都用one-foot rollout做测试 国内是移动就开始计算了 10/12 11:35
9Fwaterdesign (9留言): 对直线加速没什么帮助的 10/12 11:35
10Fwaterdesign (9留言): 有些差异合理 差这么多就有些奇怪了 10/12 11:36
你说的这家没公信力媒体是出刊二十多年的老牌杂志,而且对马三 Focus和运动抖的加速 测试成绩和原厂数据差不多.
11Fpin1024: 好慢,有先拉转在入档? 10/12 11:36
※ 编辑: Friedman (114.32.247.63), 10/12/2018 11:44:59
12Fzer0319: 在快也要你敢踩 10/12 11:36
13Fwaterdesign (9留言): 我没有拉转再入档喔!就单纯D档普通模式油门到底 10/12 11:39
14FAirCondition: 0-400km大概踩一辈子都踩不到吧 10/12 11:47
歹势搞笑了 已修改 ※ 编辑: Friedman (114.32.247.63), 10/12/2018 11:50:18
15Fq0knuGc: 我怎么记得国外测试是7.7秒左右? 10/12 11:58
16Frefgdata: 水哥最专业你不知喔 10/12 12:08
17Fjimmyyang207: 媒体大多试驾配18吋胎的顶规,原PO看仪表应该是16吋 10/12 12:09
18Fjimmyyang207: 胎版本,记得大鹏湾试驾时就有媒体说16吋胎加速性 10/12 12:09
19Fjimmyyang207: 较佳了。 10/12 12:09
20FjojoRush: 水哥被打脸 10/12 12:54
21Fz85917131: Mpeg真可爱 10/12 13:34
22Fi9100: 空间还能比马三小 10/12 13:38
23Flovefriend: 国外那是 0-100KMH 还是0-60MPH呢? 10/12 20:57
24Flovefriend: mobile01.com/topicdetail.php?f=264&t=5557741&p=6 10/12 21:09
25Flovefriend: M01 有分享0-100KMH 6.8的车 0-60MPH 是落在6.42 10/12 21:12
26Flovefriend: 如果车越慢 0-100KMH 跟 0-60MPH的秒数差距会更大 10/12 21:13
27Fsnsd0506: 测零百看的是扭力而不是马力吧?还是我误会了什么呢! 10/20 20:59
看更多 Friedman 的文章,或回到 car 看板

完整讨论串

留言数 标题 作者 日期
102 [心得] Auris 0-100 平地无风实测 waterdesign 2018-10-12T06:49:35
27 >> Re: [心得] Auris 0-100 平地无风实测 Friedman 2018-10-12T11:30:29
1 Re: [心得] Auris 0-100 平地无风实测 VVll 2018-10-12T12:09:27
20 Re: [心得] Auris 0-100 平地无风实测 RV 2018-10-13T08:51:51
7 Re: [心得] Auris 0-100 平地无风实测 MunezSu 2018-10-13T11:45:53
28 Re: [心得] Auris 0-100 平地无风实测 asin404 2018-10-13T12:06:09
42 Re: [心得] Auris 0-100 平地无风实测 VVll 2018-10-20T18:05:17